NATO 3D Rocket - Orbit

View from above orbital plane
View from above orbital plane
View from above satellite
View from above satellite

Ground track
Ground track

The orbit data is extracted from the following two-line orbital elements,

1 15392U 84115B   13145.49226560  .00000252  00000-0  87496-4 0   805
2 15392 021.4926 250.0097 1035093 139.5604 315.5651 12.45324251298899
Epoch (UTC): 25 May 2013 11:48:51
Eccentricity: 0.1035093
inclination: 21.4926°
perigee height: 670 km
apogee height: 2298 km
right ascension of ascending node: 250.0097°
argument of perigee: 139.5604°
revolutions per day: 12.45324251
mean anomaly at epoch: 315.5651°
orbit number at epoch: 29889

The dashed part of the orbit path shows where the satellite is in the earth's shadow,  

Developed and maintained by Chris Peat, Heavens-Above GmbH. Please read the updated FAQ before sending e-mail. Imprint. DLR